Powrót do katalogu

STARLINK-36869

AktywnyŁącznośćVLEO
NORAD 67954·PAYLOAD·🇺🇸 United States

Wystrzelony Feb 24, 2026 z Vandenberg Space Force Base

Loading…

Następne Przeloty (najbliższe 24 godziny)

TLE

ŚwieżeSource: CelesTrak SupGP

Epoka: Sep 15, 2026, 04:12 UTC

1 67954C 26037Y   26258.17548611 -.00027923  00000+0 -10116-2 0  2588
2 67954  42.9995 200.7244 0001194 271.7741 277.4321 15.27584555    18

Śledź STARLINK-36869 w czasie rzeczywistym z AllMySat

Download on the App Store